This demonstration page uses our WeatherBlox Daily Observations layout. Learn more.

Hourly Observations for February 21, 2020

Temp ( °F °C ) Dew Point ( °F °C ) Humidity (%) Winds ( mph kmh ) Pressure ( in mb ) Visibility ( mi km ) Precip ( " mm )
12:54 am 00:54 Clear 19 -7.2 13 -10.6 77 77 SSW 6 9 30.7 1040 10 16.0934 0 0
1:54 am 01:54 Clear 20 -6.7 14 -10 78 78 SSW 7 11 30.67 1039 10 16.0934 0 0
2:54 am 02:54 Clear 17 -8.3 11 -11.7 77 77 S 6 9 30.64 1038 10 16.0934 0 0
3:54 am 03:54 Clear 20 -6.7 14 -10 78 78 SSW 10 17 30.6 1036 10 16.0934 0 0
4:54 am 04:54 Clear 20 -6.7 14 -10 78 78 SSW 12 19 30.58 1036 10 16.0934 0 0
5:54 am 05:54 Clear 19 -7.2 13 -10.6 77 77 S 8 13 30.57 1035 10 16.0934 0 0
6:54 am 06:54 Clear 20 -6.7 14 -10 78 78 S 9 15 30.55 1035 10 16.0934 0 0
7:54 am 07:54 Sunny 21 -6.1 16 -8.9 81 81 SSW 10 17 30.54 1034 10 16.0934 0 0
8:54 am 08:54 Sunny 26 -3.3 19 -7.2 75 75 SSW 15 24 30.54 1034 10 16.0934 0 0
9:54 am 09:54 Sunny 32 0 22 -5.6 66 66 SSW 17 28 30.52 1034 10 16.0934 0 0
10:54 am 10:54 Sunny 38 3.3 24 -4.4 57 57 SW 17 28 30.49 1032 10 16.0934 0 0
11:54 am 11:54 Sunny 42 5.6 25 -3.9 51 51 SSW 24 39 30.44 1031 10 16.0934 0 0
12:54 pm 12:54 Sunny 46 7.8 25 -3.9 44 44 SW 21 33 30.4 1030 10 16.0934 0 0
1:54 pm 13:54 Sunny 49 9.4 26 -3.3 41 41 SSW 22 35 30.34 1028 10 16.0934 0 0
2:54 pm 14:54 Sunny 51 10.6 26 -3.3 38 38 SSW 17 28 30.31 1026 10 16.0934 0 0
3:54 pm 15:54 Sunny 51 10.6 25 -3.9 36 36 undefined N/A 30.28 1026 10 16.0934 0 0
4:54 pm 16:54 Sunny 50 10 25 -3.9 38 38 SSW 21 33 30.28 1025 10 16.0934 0 0
5:54 pm 17:54 Sunny 47 8.3 25 -3.9 42 42 SSW 13 20 30.28 1025 10 16.0934 0 0
6:54 pm 18:54 Clear 42 5.6 26 -3.3 53 53 S 12 19 30.29 1026 10 16.0934 0 0
7:54 pm 19:54 Clear 36 2.2 25 -3.9 64 64 S 12 19 30.29 1026 10 16.0934 0 0
8:54 pm 20:54 Clear 37 2.8 26 -3.3 65 65 S 14 22 30.27 1025 10 16.0934 0 0
9:54 pm 21:54 Clear 36 2.2 25 -3.9 64 64 SSW 8 13 30.27 1025 10 16.0934 0 0
10:54 pm 22:54 Clear 35 1.7 25 -3.9 67 67 SSW 10 17 30.27 1025 10 16.0934 0 0
11:54 pm 23:54 Clear 32 0 24 -4.4 73 73 S 6 9 30.25 1024 10 16.0934 0 0

Powered by AerisWeather